Weather observations for the past three days for
Toccoa Le Tourneau Airport
| Date | Time (edt) | Wind (mph) | Vis. (mi.) | Weather | Sky Cond. | Temperature (ºF) | Relative Humidity | Wind Chill (°F) | Heat Index (°F) | Pressure | Precipitation (in) | ||||||
|---|---|---|---|---|---|---|---|---|---|---|---|---|---|---|---|---|---|
| Air | Dwpt | 6 hour | altimeter (in) | sea level (mb) | 1 hr | 3 hr | 6 hr | ||||||||||
| Max. | Min. | ||||||||||||||||
| 02 | 18:15 | NE 8 | 10.00 | Partly Cloudy | SCT060 SCT070 | 64.4 | 50 | 60% | 29.9 | 0.0 | |||||||
| 02 | 17:55 | N 10 | 10.00 | Mostly Cloudy | BKN042 BKN060 BKN070 | 64.4 | 51.8 | 64% | 29.89 | 0.0 | |||||||
| 02 | 17:35 | NE 6 | 10.00 | Overcast | BKN042 BKN060 OVC110 | 64.4 | 50 | 60% | 29.88 | 0.0 | |||||||
| 02 | 17:15 | SE 6 | 10.00 | Overcast | BKN044 OVC110 | 68 | 50 | 53% | 29.87 | 0.0 | |||||||
| 02 | 16:55 | SE 7 | 10.00 | Mostly Cloudy | BKN046 BKN050 BKN110 | 64.4 | 48.2 | 56% | 29.87 | 0.0 | |||||||
| 02 | 16:35 | Calm | 10.00 | Mostly Cloudy | SCT050 BKN100 | 66.2 | 46.4 | 49% | 29.88 | 0.0 | |||||||
| 02 | 16:15 | W 3 | 10.00 | Mostly Cloudy | SCT045 SCT050 BKN100 | 66.2 | 46.4 | 49% | 29.89 | 0.0 | |||||||
| 02 | 15:55 | Calm | 10.00 | Mostly Cloudy | SCT055 BKN090 | 68 | 48.2 | 49% | 29.89 | 0.0 | |||||||
| 02 | 15:35 | E 3 | 10.00 | Mostly Cloudy | BKN080 BKN100 | 66.2 | 46.4 | 49% | 29.9 | 0.0 | |||||||
| 02 | 15:15 | E 3 | 10.00 | Overcast | SCT047 OVC090 | 64.4 | 46.4 | 52% | 29.9 | 0.0 | |||||||
| 02 | 14:55 | E 6 | 10.00 | Mostly Cloudy | SCT043 BKN090 | 64.4 | 46.4 | 52% | 29.9 | 0.0 | |||||||
| 02 | 14:35 | Calm | 10.00 | Fair | CLR | 66.2 | 46.4 | 49% | 29.91 | 0.0 | |||||||
| 02 | 14:15 | E 7 | 10.00 | Partly Cloudy | SCT060 SCT085 | 66.2 | 48.2 | 52% | 29.92 | 0.0 | |||||||
| 02 | 13:55 | NE 7 | 10.00 | Partly Cloudy | SCT060 SCT085 | 66.2 | 48.2 | 52% | 29.92 | 0.0 | |||||||
| 02 | 13:35 | E 7 | 10.00 | Mostly Cloudy | BKN060 BKN085 | 62.6 | 48.2 | 60% | 29.93 | 0.0 | |||||||
| 02 | 13:15 | E 6 | 10.00 | Overcast | OVC049 | 62.6 | 48.2 | 60% | 29.94 | 0.0 | |||||||
| 02 | 12:55 | E 6 | 10.00 | Overcast | OVC049 | 60.8 | 48.2 | 63% | 29.94 | 0.0 | |||||||
| 02 | 12:35 | E 6 | 10.00 | Overcast | SCT025 SCT038 OVC049 | 60.8 | 48.2 | 63% | 29.95 | 0.0 | |||||||
| 02 | 12:15 | E 10 | 10.00 | Overcast | BKN025 BKN035 OVC080 | 60.8 | 50 | 68% | 29.94 | 0.0 | |||||||
| 02 | 11:55 | NE 6 | 10.00 | Mostly Cloudy | SCT021 SCT032 BKN049 | 62.6 | 51.8 | 68% | 29.95 | 0.0 | |||||||
| 02 | 11:35 | E 5 | 10.00 | Partly Cloudy | SCT021 SCT032 SCT049 | 60.8 | 51.8 | 72% | 29.95 | 0.0 | |||||||
| 02 | 11:15 | NE 6 | 10.00 | Overcast | BKN049 OVC070 | 60.8 | 51.8 | 72% | 29.95 | 0.0 | |||||||
| 02 | 10:55 | E 5 | 10.00 | Overcast | SCT013 OVC049 | 60.8 | 53.6 | 77% | 29.95 | 0.0 | |||||||
| 02 | 10:35 | NE 7 | 10.00 | Overcast | SCT013 OVC047 | 59 | 53.6 | 82% | 29.94 | 0.0 | |||||||
| 02 | 10:15 | NE 5 | 10.00 | Overcast | BKN047 OVC120 | 59 | 53.6 | 82% | 29.94 | 0.0 | |||||||
| 02 | 09:55 | E 3 | 10.00 | Mostly Cloudy | SCT045 BKN120 | 57.2 | 53.6 | 88% | 29.93 | 0.0 | |||||||
| 02 | 09:35 | NE 5 | 10.00 | Partly Cloudy | SCT041 SCT120 | 57.2 | 53.6 | 88% | 29.92 | 0.0 | |||||||
| 02 | 09:15 | NE 6 | 10.00 | Partly Cloudy | SCT041 SCT120 | 57.2 | 51.8 | 82% | 29.92 | 0.0 | |||||||
| 02 | 08:55 | NE 3 | 10.00 | Mostly Cloudy | SCT039 BKN120 | 57.2 | 51.8 | 82% | 29.92 | 0.0 | |||||||
| 02 | 08:35 | Calm | 10.00 | Partly Cloudy | SCT100 SCT120 | 57.2 | 51.8 | 82% | 29.93 | 0.0 | |||||||
| 02 | 08:15 | NE 5 | 10.00 | Overcast | OVC110 | 55.4 | 51.8 | 88% | 29.92 | 0.0 | |||||||
| 02 | 07:55 | Calm | 10.00 | Mostly Cloudy | BKN120 | 55.4 | 51.8 | 88% | 29.92 | 0.0 | |||||||
| 02 | 07:35 | Calm | 10.00 | Overcast | OVC120 | 55.4 | 50 | 82% | 29.92 | 0.0 | |||||||
| 02 | 07:15 | Calm | 10.00 | Overcast | OVC120 | 55.4 | 51.8 | 88% | 29.9 | 0.0 | |||||||
| 02 | 06:55 | Calm | 10.00 | Overcast | OVC120 | 55.4 | 50 | 82% | 29.9 | 0.0 | |||||||
| 02 | 06:35 | N 3 | 10.00 | Overcast | OVC120 | 55.4 | 51.8 | 88% | 29.89 | 0.0 | |||||||
| 02 | 06:15 | Calm | 10.00 | Mostly Cloudy | BKN120 | 53.6 | 53.6 | 100% | 29.9 | 0.0 | |||||||
| 02 | 05:55 | NW 5 | 10.00 | Partly Cloudy | SCT120 | 55.4 | 51.8 | 88% | 29.89 | 0.0 | |||||||
| 02 | 05:35 | Calm | 10.00 | Mostly Cloudy | BKN120 | 55.4 | 53.6 | 94% | 29.89 | 0.0 | |||||||
| 02 | 05:15 | Calm | 10.00 | Partly Cloudy | SCT120 | 55.4 | 53.6 | 94% | 29.89 | 0.0 | |||||||
| 02 | 04:55 | Calm | 10.00 | Mostly Cloudy | BKN110 | 55.4 | 51.8 | 88% | 29.89 | 0.0 | |||||||
| 02 | 04:35 | Calm | 10.00 | Overcast | OVC110 | 55.4 | 53.6 | 94% | 29.9 | 0.0 | |||||||
| 02 | 04:15 | E 3 | 10.00 | Overcast | SCT100 OVC110 | 55.4 | 51.8 | 88% | 29.9 | 0.0 | |||||||
| 02 | 03:55 | S 5 | 10.00 | Light Rain | SCT065 BKN075 OVC090 | 55.4 | 53.6 | 94% | 29.9 | 0.0 | |||||||
| 02 | 03:35 | Calm | 10.00 | Overcast | SCT060 OVC075 | 57.2 | 51.8 | 82% | 29.91 | 0.0 | |||||||
| 02 | 03:15 | Calm | 10.00 | Overcast | SCT070 OVC090 | 55.4 | 53.6 | 94% | 29.9 | 0.0 | |||||||
| 02 | 02:55 | Calm | 10.00 | Overcast | OVC100 | 57.2 | 50 | 77% | 29.9 | 0.0 | |||||||
| 02 | 02:35 | W 3 | 10.00 | Overcast | OVC110 | 57.2 | 51.8 | 82% | 29.9 | 0.0 | |||||||
| 02 | 02:15 | Calm | 10.00 | Overcast | OVC110 | 57.2 | 53.6 | 88% | 29.9 | 0.0 | |||||||
| 02 | 01:55 | Calm | 10.00 | Overcast | OVC110 | 57.2 | 53.6 | 88% | 29.91 | 0.0 | |||||||
| 02 | 01:35 | Calm | 10.00 | Overcast | OVC110 | 57.2 | 53.6 | 88% | 29.91 | 0.0 | |||||||
| 02 | 01:15 | NW 3 | 10.00 | Overcast | OVC110 | 57.2 | 53.6 | 88% | 29.91 | 0.0 | |||||||
| 02 | 00:55 | Calm | 10.00 | Overcast | OVC110 | 57.2 | 53.6 | 88% | 29.92 | 0.0 | |||||||
| 02 | 00:35 | Calm | 10.00 | Overcast | OVC110 | 57.2 | 55.4 | 94% | 29.93 | 0.0 | |||||||
| 02 | 00:15 | Calm | 10.00 | Overcast | OVC120 | 57.2 | 55.4 | 94% | 29.93 | 0.0 | |||||||
| 01 | 23:55 | Calm | 10.00 | Overcast | OVC120 | 57.2 | 53.6 | 88% | 29.93 | 0.0 | |||||||
| 01 | 23:35 | Calm | 10.00 | Partly Cloudy | SCT120 | 57.2 | 53.6 | 88% | 29.94 | 0.0 | |||||||
| 01 | 23:15 | N 3 | 10.00 | Fair | CLR | 59 | 53.6 | 82% | 29.94 | 0.0 | |||||||
| 01 | 22:55 | Calm | 10.00 | Fair | CLR | 57.2 | 53.6 | 88% | 29.94 | 0.0 | |||||||
| 01 | 22:35 | NW 3 | 10.00 | Fair | CLR | 59 | 53.6 | 82% | 29.94 | 0.0 | |||||||
| 01 | 22:15 | Calm | 10.00 | Fair | CLR | 59 | 53.6 | 82% | 29.94 | 0.0 | |||||||
| 01 | 21:55 | Calm | 10.00 | Fair | CLR | 57.2 | 53.6 | 88% | 29.93 | 0.0 | |||||||
| 01 | 21:15 | SW 5 | 10.00 | Fair | CLR | 59 | 53.6 | 82% | 29.93 | 0.0 | |||||||
| 01 | 20:55 | Calm | 10.00 | Fair | CLR | 59 | 51.8 | 77% | 29.92 | 0.0 | |||||||
| 01 | 20:35 | SW 3 | 10.00 | Fair | CLR | 60.8 | 51.8 | 72% | 29.92 | 0.0 | |||||||
| 01 | 20:15 | SW 5 | 10.00 | Fair | CLR | 62.6 | 51.8 | 68% | 29.91 | 0.0 | |||||||
| 01 | 19:55 | SW 6 | 10.00 | Fair | CLR | 62.6 | 50 | 64% | 29.91 | 0.0 | |||||||
| 01 | 19:35 | SW 5 | 10.00 | Fair | CLR | 62.6 | 50 | 64% | 29.91 | 0.0 | |||||||
| 01 | 19:15 | S 5 | 10.00 | Fair | CLR | 62.6 | 50 | 64% | 29.9 | 0.0 | |||||||
| 01 | 18:55 | SW 10 | 10.00 | Fair | CLR | 64.4 | 50 | 60% | 29.9 | 0.0 | |||||||
| 01 | 18:35 | S 5 | 10.00 | Fair | CLR | 64.4 | 50 | 60% | 29.89 | 0.0 | |||||||
| 01 | 18:15 | SW 6 | 10.00 | Fair | CLR | 64.4 | 50 | 60% | 29.9 | 0.0 | |||||||
| 01 | 17:55 | SW 6 | 10.00 | Fair | CLR | 64.4 | 48.2 | 56% | 29.91 | 0.0 | |||||||
| 01 | 17:35 | SW 6 | 10.00 | Fair | CLR | 66.2 | 50 | 56% | 29.91 | 0.0 | |||||||
| 01 | 17:15 | SW 6 | 10.00 | Fair | CLR | 66.2 | 48.2 | 52% | 29.92 | 0.0 | |||||||
| 01 | 16:55 | S 5 | 10.00 | Fair | CLR | 66.2 | 48.2 | 52% | 29.93 | 0.0 | |||||||
| 01 | 16:35 | SW 5 | 10.00 | Fair | CLR | 66.2 | 46.4 | 49% | 29.93 | 0.0 | |||||||
| 01 | 16:15 | Calm | 10.00 | Fair | CLR | 66.2 | 48.2 | 52% | 29.94 | 0.0 | |||||||
| 01 | 15:55 | S 3 | 10.00 | Partly Cloudy | SCT110 | 64.4 | 46.4 | 52% | 29.94 | 0.0 | |||||||
| 01 | 15:35 | Calm | 10.00 | Mostly Cloudy | BKN110 | 66.2 | 46.4 | 49% | 29.95 | 0.0 | |||||||
| 01 | 15:15 | N 3 | 10.00 | Partly Cloudy | SCT110 | 64.4 | 46.4 | 52% | 29.96 | 0.0 | |||||||
| 01 | 14:55 | E 3 | 10.00 | Fair | CLR | 64.4 | 44.6 | 49% | 29.97 | 0.0 | |||||||
| 01 | 14:35 | S 3 | 10.00 | Fair | CLR | 62.6 | 44.6 | 52% | 29.97 | 0.0 | |||||||
| 01 | 14:15 | SE 3 | 10.00 | Fair | CLR | 64.4 | 44.6 | 49% | 29.98 | 0.0 | |||||||
| 01 | 13:55 | N 5 | 10.00 | Fair | CLR | 64.4 | 44.6 | 49% | 29.98 | 0.0 | |||||||
| 01 | 13:35 | E 6 | 10.00 | Fair | CLR | 62.6 | 44.6 | 52% | 29.99 | 0.0 | |||||||
| 01 | 13:15 | E 3 | 10.00 | Fair | CLR | 62.6 | 42.8 | 49% | 30 | 0.0 | |||||||
| 01 | 12:55 | E 9 | 10.00 | Fair | CLR | 62.6 | 42.8 | 49% | 29.99 | 0.0 | |||||||
| 01 | 12:35 | E 8 | 10.00 | Fair | CLR | 62.6 | 42.8 | 49% | 30 | 0.0 | |||||||
| 01 | 12:15 | E 7 | 10.00 | Fair | CLR | 62.6 | 42.8 | 49% | 30 | 0.0 | |||||||
| 01 | 11:55 | E 9 | 10.00 | Fair | CLR | 62.6 | 42.8 | 49% | 30.01 | 0.0 | |||||||
| 01 | 11:35 | NE 6 | 10.00 | Fair | CLR | 62.6 | 42.8 | 49% | 30.02 | 0.0 | |||||||
| 01 | 11:15 | NE 8 | 10.00 | Fair | CLR | 60.8 | 42.8 | 52% | 30.02 | 0.0 | |||||||
| 01 | 10:55 | NE 10 | 10.00 | Fair | CLR | 62.6 | 42.8 | 49% | 30.02 | 0.0 | |||||||
| 01 | 10:35 | E 12 G 17 | 10.00 | Fair | CLR | 60.8 | 42.8 | 52% | 30.01 | 0.0 | |||||||
| 01 | 10:15 | NE 6 | 10.00 | Fair | CLR | 59 | 44.6 | 59% | 30 | 0.0 | |||||||
| 01 | 09:55 | E 5 | 10.00 | Fair | CLR | 57.2 | 44.6 | 63% | 30 | 0.0 | |||||||
| 01 | 09:35 | NE 7 | 10.00 | Fair | CLR | 57.2 | 44.6 | 63% | 30 | 0.0 | |||||||
| 01 | 09:15 | NE 6 | 10.00 | Fair | CLR | 57.2 | 44.6 | 63% | 30 | 0.0 | |||||||
| 01 | 08:55 | NE 7 | 10.00 | Fair | CLR | 55.4 | 44.6 | 67% | 29.99 | 0.0 | |||||||
| 01 | 08:35 | N 7 | 10.00 | Fair | CLR | 55.4 | 44.6 | 67% | 29.99 | 0.0 | |||||||
| 01 | 08:15 | NE 6 | 10.00 | Fair | CLR | 55.4 | 44.6 | 67% | 29.98 | 0.0 | |||||||
| 01 | 07:55 | NE 7 | 10.00 | Fair | CLR | 55.4 | 44.6 | 67% | 29.97 | 0.0 | |||||||
| 01 | 07:35 | NE 7 | 10.00 | Fair | CLR | 55.4 | 46.4 | 72% | 29.97 | 0.0 | |||||||
| 01 | 07:15 | N 5 | 10.00 | Partly Cloudy | SCT120 | 53.6 | 48.2 | 82% | 29.97 | 0.0 | |||||||
| 01 | 06:55 | N 3 | 10.00 | Partly Cloudy | SCT120 | 53.6 | 48.2 | 82% | 29.96 | 0.0 | |||||||
| 01 | 06:35 | N 5 | 10.00 | Partly Cloudy | SCT120 | 51.8 | 48.2 | 88% | 29.96 | 0.0 | |||||||
| 01 | 06:15 | N 5 | 10.00 | Fair | CLR | 51.8 | 48.2 | 88% | 29.95 | 0.0 | |||||||
| 01 | 05:55 | Calm | 10.00 | Fair | CLR | 55.4 | 48.2 | 77% | 29.96 | 0.0 | |||||||
| 01 | 05:35 | N 6 | 10.00 | Fair | CLR | 53.6 | 48.2 | 82% | 29.95 | 0.0 | |||||||
| 01 | 05:15 | N 5 | 10.00 | Fair | CLR | 55.4 | 48.2 | 77% | 29.95 | 0.0 | |||||||
| 01 | 04:55 | Calm | 10.00 | Fair | CLR | 55.4 | 48.2 | 77% | 29.94 | 0.0 | |||||||
| 01 | 04:35 | N 3 | 10.00 | Partly Cloudy | SCT120 | 55.4 | 48.2 | 77% | 29.94 | 0.0 | |||||||
| 01 | 04:15 | N 3 | 10.00 | Mostly Cloudy | BKN120 | 55.4 | 50 | 82% | 29.93 | 0.0 | |||||||
| 01 | 03:55 | Calm | 10.00 | Partly Cloudy | SCT120 | 57.2 | 48.2 | 72% | 29.93 | 0.0 | |||||||
| 01 | 03:35 | E 5 | 10.00 | Mostly Cloudy | BKN120 | 55.4 | 48.2 | 77% | 29.92 | 0.0 | |||||||
| 01 | 03:15 | E 3 | 10.00 | Mostly Cloudy | BKN120 | 55.4 | 48.2 | 77% | 29.92 | 0.0 | |||||||
| 01 | 02:55 | Calm | 10.00 | Overcast | OVC120 | 55.4 | 48.2 | 77% | 29.93 | 0.0 | |||||||
| 01 | 02:35 | NE 3 | 10.00 | Mostly Cloudy | BKN120 | 57.2 | 46.4 | 67% | 29.92 | 0.0 | |||||||
| 01 | 02:15 | NW 7 | 10.00 | Mostly Cloudy | BKN120 | 55.4 | 50 | 82% | 29.93 | 0.0 | |||||||
| 01 | 01:55 | NW 6 | 10.00 | Partly Cloudy | SCT120 | 57.2 | 46.4 | 67% | 29.94 | 0.0 | |||||||
| 01 | 01:35 | NW 3 | 10.00 | Fair | CLR | 57.2 | 46.4 | 67% | 29.94 | 0.0 | |||||||
| 01 | 01:15 | NW 3 | 10.00 | Fair | CLR | 57.2 | 48.2 | 72% | 29.94 | 0.0 | |||||||
| 01 | 00:55 | N 3 | 10.00 | Fair | CLR | 57.2 | 48.2 | 72% | 29.93 | 0.0 | |||||||
| 01 | 00:35 | N 5 | 10.00 | Fair | CLR | 57.2 | 48.2 | 72% | 29.93 | 0.0 | |||||||
| 01 | 00:15 | Calm | 10.00 | Fair | CLR | 57.2 | 48.2 | 72% | 29.93 | 0.0 | |||||||
| 30 | 23:55 | Calm | 10.00 | Fair | CLR | 57.2 | 48.2 | 72% | 29.93 | 0.0 | |||||||
| 30 | 23:35 | Calm | 10.00 | Fair | CLR | 59 | 48.2 | 68% | 29.93 | 0.0 | |||||||
| 30 | 23:15 | N 3 | 10.00 | Fair | CLR | 59 | 50 | 72% | 29.93 | 0.0 | |||||||
| 30 | 22:55 | N 3 | 10.00 | Fair | CLR | 60.8 | 44.6 | 55% | 29.92 | 0.0 | |||||||
| 30 | 22:35 | N 3 | 10.00 | Fair | CLR | 62.6 | 44.6 | 52% | 29.92 | 0.0 | |||||||
| 30 | 22:15 | N 3 | 10.00 | Fair | CLR | 60.8 | 48.2 | 63% | 29.91 | 0.0 | |||||||
| 30 | 21:55 | N 3 | 10.00 | Fair | CLR | 60.8 | 50 | 68% | 29.91 | 0.0 | |||||||
| 30 | 21:35 | N 5 | 10.00 | Fair | CLR | 62.6 | 46.4 | 56% | 29.9 | 0.0 | |||||||
| 30 | 21:15 | W 5 | 10.00 | Fair | CLR | 64.4 | 48.2 | 56% | 29.89 | 0.0 | |||||||
| 30 | 20:55 | W 7 | 10.00 | Fair | CLR | 64.4 | 50 | 60% | 29.88 | 0.0 | |||||||
| 30 | 20:35 | W 6 | 10.00 | Fair | CLR | 66.2 | 50 | 56% | 29.86 | 0.0 | |||||||
| 30 | 20:15 | W 5 | 10.00 | Fair | CLR | 66.2 | 50 | 56% | 29.85 | 0.0 | |||||||
| 30 | 19:55 | W 6 | 10.00 | Fair | CLR | 68 | 50 | 53% | 29.85 | 0.0 | |||||||
| 30 | 19:35 | W 3 | 10.00 | Fair | CLR | 68 | 51.8 | 56% | 29.84 | 0.0 | |||||||
| 30 | 19:15 | W 5 | 10.00 | Fair | CLR | 69.8 | 51.8 | 53% | 29.84 | 0.0 | |||||||
| 30 | 18:55 | W 6 | 10.00 | Fair | CLR | 71.6 | 51.8 | 50% | 29.84 | 0.0 | |||||||
| 30 | 18:35 | W 6 | 10.00 | Fair | CLR | 71.6 | 50 | 47% | 29.83 | 0.0 | |||||||
| 30 | 18:15 | W 8 | 10.00 | Fair | CLR | 73.4 | 48.2 | 41% | 29.83 | 0.0 | |||||||
| 30 | 17:55 | W 10 | 10.00 | Fair | CLR | 75.2 | 48.2 | 39% | 77 | 29.83 | 0.0 | ||||||
| 30 | 17:35 | SW 10 | 10.00 | Fair | CLR | 77 | 48.2 | 36% | 78 | 29.82 | 0.0 | ||||||
| 30 | 17:15 | W 10 | 10.00 | Fair | CLR | 77 | 42.8 | 30% | 78 | 29.82 | 0.0 | ||||||
| 30 | 16:55 | SW 9 | 10.00 | Fair | CLR | 77 | 48.2 | 36% | 78 | 29.82 | 0.0 | ||||||
| 30 | 16:35 | W 6 | 10.00 | Fair | CLR | 77 | 53.6 | 44% | 78 | 29.82 | 0.0 | ||||||
| 30 | 16:15 | SW 8 | 10.00 | Partly Cloudy | SCT046 SCT050 | 77 | 53.6 | 44% | 78 | 29.84 | 0.0 | ||||||
| 30 | 15:55 | SW 8 | 10.00 | Partly Cloudy | SCT044 SCT050 | 75.2 | 55.4 | 50% | 78 | 29.84 | 0.0 | ||||||
| 30 | 15:35 | SW 5 | 10.00 | Partly Cloudy | SCT045 SCT055 | 75.2 | 55.4 | 50% | 78 | 29.84 | 0.0 | ||||||
| 30 | 15:15 | SW 9 | 10.00 | Mostly Cloudy | BKN045 BKN055 BKN065 | 75.2 | 57.2 | 54% | 78 | 29.84 | 0.0 | ||||||
| 30 | 14:55 | Calm | 10.00 | Mostly Cloudy | SCT042 BKN049 | 73.4 | 53.6 | 50% | 29.84 | 0.0 | |||||||
| 30 | 14:35 | Calm | 10.00 | Mostly Cloudy | SCT042 BKN055 | 73.4 | 55.4 | 53% | 29.85 | 0.0 | |||||||
| 30 | 14:15 | Calm | 10.00 | Partly Cloudy | SCT044 | 73.4 | 53.6 | 50% | 29.86 | 0.0 | |||||||
| 30 | 13:55 | E 3 | 10.00 | Mostly Cloudy | SCT033 BKN044 | 75.2 | 57.2 | 54% | 78 | 29.86 | 0.0 | ||||||
| 30 | 13:35 | SW 6 | 10.00 | Mostly Cloudy | BKN033 BKN046 BKN050 | 71.6 | 57.2 | 61% | 29.87 | 0.0 | |||||||
| 30 | 13:15 | Calm | 10.00 | Mostly Cloudy | BKN031 BKN045 | 71.6 | 57.2 | 61% | 29.88 | 0.0 | |||||||
| 30 | 12:55 | Calm | 10.00 | Partly Cloudy | SCT029 SCT036 | 71.6 | 57.2 | 61% | 29.88 | 0.0 | |||||||
| 30 | 12:35 | E 3 | 10.00 | Partly Cloudy | SCT036 | 69.8 | 57.2 | 64% | 29.89 | 0.0 | |||||||
| 30 | 12:15 | Calm | 10.00 | Partly Cloudy | SCT026 SCT036 SCT044 | 69.8 | 57.2 | 64% | 29.88 | 0.0 | |||||||
| 30 | 11:55 | SW 3 | 10.00 | Partly Cloudy | SCT026 SCT036 | 69.8 | 57.2 | 64% | 29.89 | 0.0 | |||||||
| 30 | 11:35 | S 3 | 10.00 | Partly Cloudy | SCT028 SCT039 | 69.8 | 59 | 69% | 29.89 | 0.0 | |||||||
| 30 | 11:15 | SW 3 | 10.00 | Overcast | SCT028 OVC039 | 68 | 57.2 | 69% | 29.89 | 0.0 | |||||||
| 30 | 10:55 | SW 7 | 10.00 | Overcast | SCT020 BKN026 OVC037 | 68 | 59 | 73% | 29.89 | 0.0 | |||||||
| 30 | 10:35 | SW 5 | 10.00 | Overcast | OVC020 | 66.2 | 59 | 78% | 29.89 | 0.0 | |||||||
| 30 | 10:15 | S 6 | 10.00 | Partly Cloudy | SCT016 SCT023 | 66.2 | 59 | 78% | 29.89 | 0.0 | |||||||
| 30 | 09:55 | SW 8 | 10.00 | Fair | CLR | 66.2 | 60.8 | 83% | 29.88 | 0.0 | |||||||
| 30 | 09:35 | SW 10 | 10.00 | Fair | CLR | 66.2 | 60.8 | 83% | 29.87 | 0.0 | |||||||
| 30 | 09:15 | W 5 | 10.00 | Fair | CLR | 64.4 | 60.8 | 88% | 29.85 | 0.0 | |||||||
| 30 | 08:55 | NW 5 | 10.00 | Fair | CLR | 64.4 | 59 | 83% | 29.83 | 0.0 | |||||||
| 30 | 08:35 | SW 5 | 10.00 | Partly Cloudy | SCT110 | 60.8 | 59 | 94% | 29.83 | 0.0 | |||||||
| 30 | 08:15 | Calm | 10.00 | Overcast | OVC110 | 60.8 | 59 | 94% | 29.82 | 0.0 | |||||||
| 30 | 07:55 | E 3 | 10.00 | Overcast | OVC110 | 60.8 | 59 | 94% | 29.81 | 0.0 | 0.01 | ||||||
| 30 | 07:35 | N 6 | 10.00 | Light Rain | OVC095 | 60.8 | 59 | 94% | 29.83 | 0.0 | 0.01 | ||||||
| 30 | 07:15 | NE 7 | 10.00 | Rain | SCT070 OVC095 | 60.8 | 59 | 94% | 29.84 | 0.0 | |||||||
| 30 | 06:55 | N 7 | 10.00 | Light Rain | OVC095 | 60.8 | 59 | 94% | 29.85 | 0.0 | 0.01 | ||||||
| 30 | 06:35 | Calm | 10.00 | Light Rain | OVC095 | 60.8 | 59 | 94% | 29.84 | 0.0 | 0.01 | ||||||
| 30 | 06:15 | Calm | 10.00 | Light Rain | OVC095 | 60.8 | 59 | 94% | 29.84 | 0.0 | |||||||
| 30 | 05:55 | N 7 | 10.00 | Light Rain | OVC095 | 60.8 | 60.8 | 100% | 29.84 | 0.0 | 0.17 | ||||||
| 30 | 05:35 | N 12 G 17 | 7.00 | Thunderstorm Rain in Vicinity | SCT049 SCT070 OVC085 | 62.6 | 59 | 88% | 29.85 | 0.0 | 0.15 | ||||||
| 30 | 05:15 | W 7 | 5.00 | Thunderstorm Rain in Vicinity Fog/Mist | SCT011 BKN043 OVC075 | 62.6 | 60.8 | 94% | 29.86 | 0.0 | 0.11 | ||||||
| 30 | 04:55 | SW 15 G 28 | 3.00 | Thunderstorm Heavy Rain Fog/Mist | SCT011 BKN022 OVC046 | 62.6 | 62.6 | 100% | 29.86 | 0.0 | 0.14 | ||||||
| 30 | 04:35 | W 5 | 10.00 | Thunderstorm in Vicinity | BKN046 BKN055 BKN110 | 66.2 | 60.8 | 83% | 29.8 | 0.0 | |||||||
| 30 | 04:15 | N 6 | 10.00 | Mostly Cloudy | BKN046 | 66.2 | 60.8 | 83% | 29.8 | 0.0 | |||||||
| 30 | 03:55 | N 6 | 10.00 | Overcast | OVC046 | 66.2 | 60.8 | 83% | 29.81 | 0.0 | |||||||
| 30 | 03:35 | N 5 | 10.00 | Mostly Cloudy | BKN046 | 66.2 | 60.8 | 83% | 29.81 | 0.0 | |||||||
| 30 | 03:15 | Calm | 10.00 | Fair | CLR | 64.4 | 62.6 | 94% | 29.81 | 0.0 | |||||||
| 30 | 02:55 | Calm | 10.00 | Fair | CLR | 66.2 | 62.6 | 88% | 29.81 | 0.0 | |||||||
| 30 | 02:35 | Calm | 10.00 | Partly Cloudy | SCT060 | 66.2 | 62.6 | 88% | 29.82 | 0.0 | |||||||
| 30 | 02:15 | N 5 | 10.00 | Overcast | BKN060 OVC070 | 66.2 | 62.6 | 88% | 29.83 | 0.0 | |||||||
| 30 | 01:55 | N 3 | 10.00 | Mostly Cloudy | BKN070 | 68 | 62.6 | 83% | 29.83 | 0.0 | |||||||
| 30 | 01:35 | W 6 | 10.00 | Partly Cloudy | SCT055 | 68 | 62.6 | 83% | 29.85 | 0.0 | |||||||
| 30 | 01:15 | W 3 | 10.00 | Fair | CLR | 68 | 62.6 | 83% | 29.86 | 0.0 | |||||||
| 30 | 00:55 | W 3 | 10.00 | Fair | CLR | 68 | 62.6 | 83% | 29.87 | 0.0 | |||||||
| 30 | 00:35 | W 6 | 10.00 | Fair | CLR | 69.8 | 62.6 | 78% | 29.87 | 0.0 | |||||||
| 30 | 00:15 | W 8 | 10.00 | Fair | CLR | 69.8 | 62.6 | 78% | 29.88 | 0.0 | |||||||
| 29 | 23:55 | W 6 | 10.00 | Fair | CLR | 69.8 | 62.6 | 78% | 29.88 | 0.0 | |||||||
| 29 | 23:35 | SW 7 | 10.00 | Fair | CLR | 69.8 | 64.4 | 83% | 29.88 | 0.0 | |||||||
| 29 | 23:15 | SW 5 | 10.00 | Fair | CLR | 68 | 64.4 | 88% | 29.88 | 0.0 | |||||||
| 29 | 22:55 | SW 5 | 10.00 | Fair | CLR | 69.8 | 64.4 | 83% | 29.88 | 0.0 | |||||||
| 29 | 22:35 | W 5 | 10.00 | Fair | CLR | 71.6 | 62.6 | 73% | 29.87 | 0.0 | |||||||
| 29 | 22:15 | Calm | 10.00 | Fair | CLR | 71.6 | 62.6 | 73% | 29.86 | 0.0 | |||||||
| 29 | 21:55 | W 3 | 10.00 | Fair | CLR | 71.6 | 64.4 | 78% | 29.86 | 0.0 | |||||||
| 29 | 21:35 | W 7 | 10.00 | Fair | CLR | 73.4 | 64.4 | 74% | 29.85 | 0.0 | |||||||
| 29 | 21:15 | W 6 | 10.00 | Fair | CLR | 73.4 | 64.4 | 74% | 29.84 | 0.0 | |||||||
| 29 | 20:55 | W 7 | 10.00 | Partly Cloudy | SCT050 | 75.2 | 62.6 | 65% | 77 | 29.84 | 0.0 | ||||||
| 29 | 20:35 | SW 8 | 10.00 | Mostly Cloudy | BKN050 | 75.2 | 62.6 | 65% | 77 | 29.85 | 0.0 | ||||||
| 29 | 20:15 | SW 6 | 10.00 | Mostly Cloudy | BKN050 | 73.4 | 64.4 | 74% | 29.84 | 0.0 | |||||||
| 29 | 19:55 | SW 5 | 10.00 | Partly Cloudy | SCT047 | 75.2 | 64.4 | 69% | 77 | 29.83 | 0.0 | ||||||
| 29 | 19:35 | SW 6 | 10.00 | Fair | CLR | 77 | 62.6 | 61% | 79 | 29.83 | 0.0 | ||||||
| 29 | 19:15 | W 7 | 10.00 | Fair | CLR | 78.8 | 62.6 | 58% | 80 | 29.83 | 0.0 | ||||||
| 29 | 18:55 | W 7 | 10.00 | Partly Cloudy | SCT047 SCT050 | 78.8 | 62.6 | 58% | 80 | 29.83 | 0.0 | ||||||
| 29 | 18:35 | W 9 G 16 | 10.00 | Mostly Cloudy | SCT047 SCT060 BKN100 | 82.4 | 62.6 | 51% | 83 | 29.83 | 0.0 | ||||||
| Date | Time (edt) | Wind (mph) | Vis. (mi.) | Weather | Sky Cond. | Air | Dwpt | Max. | Min. | Relative Humidity | Wind Chill (°F) | Heat Index (°F) | altimeter (in) | sea level (mb) | 1 hr | 3 hr | 6 hr |
| 6 hour | |||||||||||||||||
| Temperature (ºF) | Pressure | Precipitation (in) | |||||||||||||||